This is the latest recevied weather packets stored in our database for station/object OM4MO-10. If no packets are shown the sender has not sent any weather packets the latest 10 day(s).
| Time | Temp. | Humidity | Pressure | Rain* | Wind** | Luminosity | Snow |
|---|---|---|---|---|---|---|---|
| 1777708261 | 16.67° C | 65% | 1026.4 hPa | - | - | - | - |
| 1777707061 | 15.56° C | 71% | 1027.5 hPa | - | - | - | - |
| 1777705861 | 14.44° C | 82% | 1026.4 hPa | - | - | - | - |
| 1777704661 | 12.78° C | 100% | 1025.7 hPa | - | - | - | - |
| 1777703461 | 11.67° C | 100% | 1025.7 hPa | - | - | - | - |
| 1777702261 | 10.56° C | 100% | 1025.8 hPa | - | - | - | - |
| 1777701060 | 9.44° C | 100% | 1025.8 hPa | - | - | - | - |
| 1777699861 | 8.33° C | 100% | 1025.9 hPa | - | - | - | - |
| 1777698660 | 7.22° C | 100% | 1025.9 hPa | - | - | - | - |
| 1777697460 | 5.56° C | 100% | 1026 hPa | - | - | - | - |
| 1777696260 | 5° C | 100% | 1025.9 hPa | - | - | - | - |
| 1777695060 | 3.89° C | 100% | 1025.9 hPa | - | - | - | - |
| 1777693860 | 3.33° C | 100% | 1025.7 hPa | - | - | - | - |
| 1777692660 | 4.44° C | 100% | 1025.6 hPa | - | - | - | - |
| 1777691460 | 3.33° C | 100% | 1025.7 hPa | - | - | - | - |
| 1777690259 | 4.44° C | 100% | 1025.6 hPa | - | - | - | - |
| 1777689059 | 3.89° C | 100% | 1025.8 hPa | - | - | - | - |
| 1777687859 | 3.33° C | 100% | 1025.8 hPa | - | - | - | - |
| 1777686659 | 4.44° C | 100% | 1025.6 hPa | - | - | - | - |
| 1777685459 | 3.89° C | 100% | 1025.7 hPa | - | - | - | - |
| 1777684259 | 3.89° C | 100% | 1025.7 hPa | - | - | - | - |
| 1777683059 | 4.44° C | 100% | 1025.9 hPa | - | - | - | - |
| 1777681859 | 4.44° C | 100% | 1026 hPa | - | - | - | - |
| 1777680659 | 4.44° C | 100% | 1026 hPa | - | - | - | - |
| 1777679458 | 4.44° C | 100% | 1026.1 hPa | - | - | - | - |
* Rain since midnight (hover to see other rain measurements)
** Current wind speed in m/s (hover to see current wind gust speed)